contact:dominique.lefevre@mio.osupytheas.fr, maurice.libes@osupytheas.fr, didier.mallarino@osupytheas.fr
Project:EMSO http://www.emso-fr.org/EMSO-France
Depth: 2436.0 m
Title:EMSO Ligure Ouest : Data MII capteur AQUADOPP
Date,Latitude,Longitude,X_East,Y_North,Z_Up,Amplitude_X,Amplitude_Y,Amplitude_Z,Batterie,SoundSpeed,Heading,Pitch,Roll,Pressure,TIS,Speed,Direction
, degrees North, degrees East, m.s-1, m.s-1,m.s-1, 1, 1, 1, Volt, m.s-1, degree, degree, degree, dbar, degree_C, m.s-1, degree
2022-08-02T00:04:03,42.805,6.029,-0.031,0.005,-0.014,102.0,102.0,101.0,13.3,1505.2,320.6,-0.8,1.9,2470.984,13.28,0.031,279.2
2022-08-02T00:07:03,42.805,6.029,-0.044,0.009,-0.032,103.0,104.0,102.0,13.4,1505.2,331.2,-0.7,1.8,2470.962,13.28,0.044,281.6
2022-08-02T00:10:03,42.805,6.029,-0.061,-0.01,-0.038,101.0,101.0,101.0,13.4,1505.2,332.9,-0.8,1.8,2470.951,13.28,0.061,260.7
2022-08-02T00:13:03,42.805,6.029,-0.04,0.033,0.017,102.0,101.0,101.0,13.4,1505.2,328.4,-0.8,1.8,2470.931,13.28,0.051,309.5
2022-08-02T00:16:03,42.805,6.029,-0.065,0.013,-0.01,102.0,103.0,101.0,13.4,1505.2,332.3,-0.8,1.8,2470.94,13.28,0.066,281.3
2022-08-02T00:19:03,42.805,6.029,-0.051,-0.027,-0.033,101.0,102.0,102.0,13.4,1505.2,321.7,-0.8,1.8,2470.902,13.28,0.057,242.1
2022-08-02T00:22:03,42.805,6.029,-0.035,-0.033,-0.025,104.0,104.0,99.0,13.4,1505.2,323.9,-0.8,1.8,2470.93,13.28,0.048,226.7
2022-08-02T00:25:03,42.805,6.029,-0.04,-0.012,-0.032,102.0,102.0,101.0,13.4,1505.2,328.0,-0.8,1.8,2470.902,13.28,0.041,253.3
2022-08-02T00:28:03,42.805,6.029,-0.036,-0.02,-0.034,102.0,102.0,102.0,13.4,1505.2,330.2,-0.7,1.8,2470.922,13.28,0.041,240.9
2022-08-02T00:31:03,42.805,6.029,-0.038,-0.011,-0.014,102.0,103.0,100.0,13.3,1505.2,328.4,-0.8,1.9,2470.875,13.28,0.039,253.9
2022-08-02T00:34:03,42.805,6.029,-0.038,-0.007,-0.008,103.0,102.0,101.0,13.3,1505.2,329.4,-0.8,1.8,2470.896,13.28,0.038,259.6
2022-08-02T00:37:03,42.805,6.029,-0.052,-0.025,-0.042,102.0,102.0,101.0,13.3,1505.2,320.7,-0.8,1.8,2470.914,13.28,0.057,244.3
2022-08-02T00:40:03,42.805,6.029,-0.036,0.01,-0.007,102.0,103.0,101.0,13.4,1505.2,332.9,-0.8,1.8,2470.914,13.28,0.037,285.5
2022-08-02T00:43:03,42.805,6.029,-0.055,-0.021,-0.04,102.0,103.0,101.0,13.4,1505.2,329.5,-0.8,1.8,2470.892,13.28,0.058,249.1
2022-08-02T00:46:03,42.805,6.029,-0.054,0.005,-0.007,102.0,102.0,100.0,13.4,1505.2,333.9,-0.8,1.8,2470.901,13.28,0.054,275.3
2022-08-02T00:49:03,42.805,6.029,-0.041,-0.021,-0.052,103.0,101.0,101.0,13.4,1505.2,333.1,-0.8,1.8,2470.879,13.28,0.046,242.9
2022-08-02T00:52:03,42.805,6.029,-0.075,-0.013,-0.059,103.0,102.0,101.0,13.4,1505.2,326.1,-0.7,1.8,2470.875,13.28,0.076,260.2
2022-08-02T00:55:03,42.805,6.029,-0.041,0.002,-0.022,103.0,102.0,100.0,13.3,1505.2,322.8,-0.7,1.8,2470.88,13.28,0.041,272.8
2022-08-02T00:58:03,42.805,6.029,-0.048,-0.019,-0.041,102.0,104.0,100.0,13.3,1505.2,323.8,-0.7,1.8,2470.904,13.28,0.051,248.4
2022-08-02T01:04:03,42.805,6.029,-0.04,-0.005,-0.044,104.0,104.0,102.0,13.3,1505.2,321.2,-0.8,1.8,2470.936,13.28,0.04,262.9
2022-08-02T01:07:03,42.805,6.029,-0.033,-0.015,-0.029,102.0,103.0,102.0,13.3,1505.2,319.6,-0.8,1.8,2470.87,13.28,0.036,245.6
2022-08-02T01:10:03,42.805,6.029,-0.049,-0.006,-0.014,103.0,103.0,101.0,13.3,1505.2,325.2,-0.8,1.8,2470.901,13.28,0.049,263.0
2022-08-02T01:13:03,42.805,6.029,-0.043,0.0,-0.016,103.0,102.0,101.0,13.3,1505.2,333.1,-0.8,1.9,2470.883,13.28,0.043,270.0
2022-08-02T01:16:03,42.805,6.029,-0.059,-0.012,-0.016,102.0,102.0,101.0,13.4,1505.2,324.2,-0.8,1.9,2470.882,13.28,0.06,258.5
2022-08-02T01:19:03,42.805,6.029,-0.051,-0.032,-0.046,102.0,102.0,101.0,13.4,1505.2,321.5,-0.7,1.8,2470.9,13.28,0.06,237.9
2022-08-02T01:22:03,42.805,6.029,-0.052,-0.037,-0.056,102.0,104.0,103.0,13.4,1505.2,323.5,-0.7,1.8,2470.853,13.28,0.063,234.6
2022-08-02T01:25:03,42.805,6.029,-0.058,0.001,0.003,104.0,102.0,101.0,13.4,1505.2,330.4,-0.7,1.8,2470.872,13.28,0.058,271.0
2022-08-02T01:28:03,42.805,6.029,-0.03,-0.012,-0.036,103.0,102.0,102.0,13.4,1505.2,320.9,-0.7,1.8,2470.871,13.28,0.032,248.2
2022-08-02T01:31:03,42.805,6.029,-0.039,0.001,-0.016,102.0,102.0,102.0,13.4,1505.2,322.8,-0.8,1.8,2470.885,13.28,0.039,271.5
2022-08-02T01:34:03,42.805,6.029,-0.051,-0.005,-0.014,103.0,102.0,102.0,13.3,1505.2,327.7,-0.7,1.8,2470.874,13.28,0.051,264.4
2022-08-02T01:37:03,42.805,6.029,-0.027,-0.009,-0.031,102.0,102.0,101.0,13.4,1505.2,332.9,-0.8,1.8,2470.872,13.28,0.028,251.6
2022-08-02T01:40:03,42.805,6.029,-0.026,0.006,0.007,103.0,102.0,101.0,13.4,1505.2,323.3,-0.8,1.8,2470.872,13.28,0.026,283.0
2022-08-02T01:43:03,42.805,6.029,-0.042,-0.021,-0.026,102.0,102.0,100.0,13.3,1505.2,330.3,-0.8,1.8,2470.876,13.28,0.046,243.4
2022-08-02T01:46:03,42.805,6.029,-0.05,-0.032,-0.047,102.0,102.0,101.0,13.3,1505.2,320.5,-0.8,1.8,2470.824,13.28,0.059,237.4
2022-08-02T01:49:03,42.805,6.029,-0.052,-0.026,-0.035,103.0,100.0,102.0,13.3,1505.2,330.3,-0.7,1.9,2470.845,13.28,0.058,243.4
2022-08-02T01:52:03,42.805,6.029,-0.045,-0.009,-0.028,102.0,102.0,103.0,13.3,1505.2,328.5,-0.8,1.8,2470.862,13.28,0.045,258.7
2022-08-02T01:55:03,42.805,6.029,-0.032,-0.005,-0.049,102.0,103.0,102.0,13.4,1505.2,332.3,-0.7,1.8,2470.812,13.28,0.032,261.1
2022-08-02T01:58:03,42.805,6.029,-0.033,-0.031,-0.01,102.0,102.0,101.0,13.4,1505.2,327.7,-0.8,1.8,2470.855,13.28,0.045,226.8
2022-08-02T02:01:03,42.805,6.029,-0.062,-0.008,-0.032,103.0,102.0,101.0,13.4,1505.2,330.6,-0.8,1.8,2470.866,13.28,0.062,262.7
2022-08-02T02:04:03,42.805,6.029,-0.042,-0.024,-0.04,103.0,102.0,100.0,13.4,1505.2,319.7,-0.8,1.8,2470.824,13.28,0.048,240.3
2022-08-02T02:07:03,42.805,6.029,-0.034,-0.025,-0.011,102.0,103.0,100.0,13.4,1505.2,323.9,-0.8,1.8,2470.841,13.28,0.042,233.7
2022-08-02T02:10:03,42.805,6.029,-0.046,0.017,-0.012,102.0,103.0,101.0,13.4,1505.2,333.6,-0.7,1.8,2470.837,13.29,0.049,290.3
2022-08-02T02:13:03,42.805,6.029,-0.034,-0.026,-0.017,102.0,102.0,102.0,13.4,1505.2,318.9,-0.7,1.8,2470.81,13.28,0.042,232.6
2022-08-02T02:16:03,42.805,6.029,-0.048,0.003,-0.022,102.0,103.0,100.0,13.4,1505.2,328.3,-0.8,1.8,2470.822,13.28,0.048,273.6
2022-08-02T02:19:03,42.805,6.029,-0.057,-0.01,-0.05,102.0,103.0,101.0,13.4,1505.2,329.2,-0.8,1.8,2470.842,13.28,0.057,260.1
2022-08-02T02:22:03,42.805,6.029,-0.049,-0.022,-0.012,102.0,102.0,100.0,13.4,1505.2,323.8,-0.7,1.8,2470.798,13.28,0.053,245.8
2022-08-02T02:25:03,42.805,6.029,-0.036,-0.028,-0.027,102.0,101.0,101.0,13.4,1505.2,324.2,-0.7,1.8,2470.783,13.28,0.045,232.1
2022-08-02T02:28:03,42.805,6.029,-0.049,-0.014,-0.051,103.0,102.0,101.0,13.4,1505.2,324.1,-0.8,1.8,2470.848,13.28,0.05,254.1
2022-08-02T02:31:03,42.805,6.029,-0.033,-0.021,-0.015,103.0,103.0,101.0,13.4,1505.2,324.5,-0.7,1.8,2470.811,13.28,0.039,237.5
2022-08-02T02:34:03,42.805,6.029,-0.037,-0.028,-0.025,102.0,102.0,101.0,13.4,1505.2,326.4,-0.8,1.8,2470.802,13.29,0.046,232.9
2022-08-02T02:37:03,42.805,6.029,-0.031,-0.016,-0.032,102.0,101.0,101.0,13.4,1505.2,321.1,-0.7,1.8,2470.812,13.28,0.034,242.7
2022-08-02T02:40:03,42.805,6.029,-0.049,-0.029,-0.05,103.0,102.0,101.0,13.3,1505.2,325.1,-0.8,1.8,2470.815,13.28,0.056,239.4
2022-08-02T02:43:03,42.805,6.029,-0.055,-0.017,-0.031,102.0,102.0,102.0,13.4,1505.2,325.0,-0.8,1.8,2470.835,13.28,0.057,252.8
2022-08-02T02:46:03,42.805,6.029,-0.059,-0.03,-0.038,102.0,103.0,100.0,13.4,1505.2,321.7,-0.8,1.8,2470.824,13.28,0.066,243.1
2022-08-02T02:49:03,42.805,6.029,-0.049,-0.01,-0.009,103.0,101.0,101.0,13.3,1505.2,323.4,-0.7,1.8,2470.79,13.28,0.05,258.5
2022-08-02T02:52:03,42.805,6.029,-0.022,-0.02,-0.021,102.0,103.0,101.0,13.4,1505.2,327.7,-0.7,1.8,2470.846,13.28,0.029,227.7
2022-08-02T02:55:03,42.805,6.029,-0.087,-0.007,-0.03,101.0,101.0,102.0,13.3,1505.2,325.8,-0.7,1.8,2470.81,13.28,0.087,265.4
2022-08-02T02:58:03,42.805,6.029,-0.035,-0.02,-0.04,102.0,102.0,101.0,13.4,1505.2,322.7,-0.8,1.8,2470.794,13.28,0.04,240.3
2022-08-02T03:04:03,42.805,6.029,-0.033,0.0,0.001,100.0,101.0,102.0,13.4,1505.2,332.4,-0.8,1.8,2470.879,13.28,0.033,270.0
2022-08-02T03:07:03,42.805,6.029,-0.037,-0.012,-0.033,103.0,101.0,101.0,13.4,1505.2,321.2,-0.8,1.9,2470.801,13.28,0.038,252.0
2022-08-02T03:10:03,42.805,6.029,-0.052,-0.029,-0.019,101.0,102.0,101.0,13.4,1505.2,319.5,-0.8,1.8,2470.823,13.28,0.059,240.9
2022-08-02T03:13:03,42.805,6.029,-0.054,-0.003,-0.029,103.0,103.0,101.0,13.4,1505.2,326.1,-0.7,1.8,2470.837,13.28,0.054,266.8
2022-08-02T03:16:03,42.805,6.029,-0.05,-0.028,-0.034,102.0,103.0,101.0,13.3,1505.2,324.1,-0.8,1.8,2470.782,13.28,0.057,240.7
2022-08-02T03:19:03,42.805,6.029,-0.043,-0.02,-0.023,102.0,101.0,101.0,13.4,1505.2,327.6,-0.7,1.8,2470.839,13.28,0.047,245.1
2022-08-02T03:22:03,42.805,6.029,-0.035,-0.02,-0.009,101.0,102.0,101.0,13.4,1505.2,325.9,-0.8,1.8,2470.815,13.28,0.04,240.3
2022-08-02T03:25:03,42.805,6.029,-0.013,-0.018,-0.019,103.0,102.0,101.0,13.4,1505.2,328.8,-0.7,1.8,2470.785,13.28,0.022,215.8
2022-08-02T03:28:03,42.805,6.029,-0.015,-0.006,-0.016,103.0,101.0,102.0,13.4,1505.2,319.5,-0.7,1.8,2470.803,13.28,0.016,248.2
2022-08-02T03:31:03,42.805,6.029,-0.045,-0.011,-0.008,103.0,102.0,101.0,13.4,1505.2,328.9,-0.8,1.8,2470.76,13.28,0.046,256.3
2022-08-02T03:34:03,42.805,6.029,-0.036,-0.02,-0.029,101.0,103.0,100.0,13.4,1505.2,323.8,-0.8,1.8,2470.787,13.28,0.041,240.9
2022-08-02T03:37:03,42.805,6.029,-0.046,0.009,-0.002,104.0,101.0,101.0,13.3,1505.2,324.0,-0.8,1.8,2470.8,13.28,0.046,281.1
2022-08-02T03:40:03,42.805,6.029,-0.048,-0.023,-0.033,103.0,103.0,100.0,13.4,1505.2,331.8,-0.8,1.8,2470.763,13.28,0.053,244.4
2022-08-02T03:43:03,42.805,6.029,-0.053,-0.005,-0.036,103.0,101.0,104.0,13.4,1505.2,328.4,-0.7,1.8,2470.783,13.28,0.053,264.6
2022-08-02T03:46:03,42.805,6.029,-0.053,-0.021,-0.012,102.0,102.0,107.0,13.4,1505.2,333.1,-0.8,1.8,2470.746,13.28,0.057,248.4
2022-08-02T03:49:03,42.805,6.029,-0.036,-0.021,-0.031,102.0,102.0,101.0,13.4,1505.2,323.7,-0.7,1.8,2470.815,13.28,0.041,239.7
2022-08-02T03:52:03,42.805,6.029,-0.052,0.003,-0.022,102.0,102.0,100.0,13.4,1505.2,331.9,-0.7,1.8,2470.814,13.28,0.052,273.3
2022-08-02T03:55:03,42.805,6.029,-0.022,-0.016,-0.008,103.0,102.0,101.0,13.4,1505.2,329.3,-0.8,1.8,2470.749,13.28,0.027,234.0
2022-08-02T03:58:03,42.805,6.029,-0.037,0.003,-0.003,102.0,102.0,101.0,13.4,1505.2,332.1,-0.8,1.8,2470.811,13.28,0.037,274.6
2022-08-02T04:04:03,42.805,6.029,-0.05,-0.004,-0.023,102.0,103.0,104.0,13.3,1505.2,322.3,-0.8,1.8,2470.816,13.28,0.05,265.4
2022-08-02T04:07:03,42.805,6.029,-0.046,-0.026,-0.029,105.0,103.0,101.0,13.4,1505.2,323.5,-0.8,1.8,2470.82,13.28,0.052,240.5
2022-08-02T04:10:03,42.805,6.029,-0.035,0.0,0.0,103.0,102.0,101.0,13.3,1505.2,329.9,-0.7,1.8,2470.789,13.28,0.035,270.0
2022-08-02T04:13:03,42.805,6.029,-0.034,-0.024,-0.036,104.0,102.0,100.0,13.4,1505.2,323.9,-0.7,1.8,2470.808,13.28,0.041,234.8
2022-08-02T04:16:03,42.805,6.029,-0.023,-0.013,-0.014,103.0,102.0,101.0,13.4,1505.2,323.4,-0.7,1.8,2470.816,13.28,0.026,240.5
2022-08-02T04:19:03,42.805,6.029,-0.057,-0.012,-0.036,102.0,102.0,101.0,13.4,1505.2,319.0,-0.7,1.8,2470.762,13.28,0.058,258.1
2022-08-02T04:22:03,42.805,6.029,-0.05,-0.021,-0.041,102.0,102.0,101.0,13.4,1505.2,323.5,-0.8,1.8,2470.791,13.28,0.054,247.2
2022-08-02T04:25:03,42.805,6.029,-0.085,-0.035,-0.031,103.0,102.0,101.0,13.4,1505.2,319.9,-0.8,1.8,2470.743,13.28,0.091,247.6
2022-08-02T04:28:03,42.805,6.029,-0.047,0.003,-0.026,102.0,102.0,101.0,13.4,1505.2,334.4,-0.7,1.8,2470.77,13.28,0.047,273.6
2022-08-02T04:31:03,42.805,6.029,-0.032,-0.037,-0.034,103.0,103.0,102.0,13.3,1505.2,327.1,-0.8,1.8,2470.783,13.28,0.048,220.9
2022-08-02T04:34:03,42.805,6.029,-0.029,-0.024,-0.062,102.0,102.0,101.0,13.4,1505.2,323.1,-0.7,1.8,2470.778,13.28,0.037,230.4
2022-08-02T04:37:03,42.805,6.029,-0.063,-0.004,-0.006,104.0,101.0,101.0,13.4,1505.2,325.2,-0.7,1.8,2470.758,13.28,0.063,266.4
2022-08-02T04:40:03,42.805,6.029,-0.047,-0.016,-0.034,104.0,103.0,100.0,13.4,1505.2,324.7,-0.8,1.8,2470.781,13.28,0.049,251.2
2022-08-02T04:43:03,42.805,6.029,-0.054,-0.011,-0.012,104.0,102.0,101.0,13.4,1505.2,327.5,-0.8,1.8,2470.764,13.28,0.055,258.5
2022-08-02T04:46:03,42.805,6.029,-0.019,-0.031,-0.031,102.0,102.0,100.0,13.4,1505.2,321.9,-0.7,1.8,2470.761,13.28,0.036,211.5
2022-08-02T04:49:03,42.805,6.029,-0.05,0.0,-0.04,102.0,102.0,101.0,13.4,1505.2,326.4,-0.7,1.8,2470.761,13.28,0.05,270.0
2022-08-02T04:52:03,42.805,6.029,-0.044,-0.028,-0.047,103.0,102.0,101.0,13.3,1505.2,319.6,-0.7,1.8,2470.763,13.28,0.052,237.5
2022-08-02T04:55:03,42.805,6.029,-0.054,-0.02,-0.005,101.0,102.0,105.0,13.4,1505.2,319.1,-0.7,1.8,2470.77,13.28,0.057,249.7
2022-08-02T04:58:03,42.805,6.029,-0.049,-0.009,-0.039,102.0,102.0,100.0,13.4,1505.2,327.0,-0.8,1.8,2470.744,13.28,0.049,259.6
2022-08-02T05:04:03,42.805,6.029,-0.049,-0.01,-0.008,102.0,102.0,101.0,13.3,1505.2,320.1,-0.8,1.8,2470.796,13.28,0.05,258.5
2022-08-02T05:07:03,42.805,6.029,-0.05,-0.014,-0.025,102.0,102.0,101.0,13.4,1505.2,330.0,-0.8,1.8,2470.782,13.28,0.051,254.4
2022-08-02T05:10:03,42.805,6.029,-0.037,-0.014,-0.005,102.0,102.0,101.0,13.4,1505.2,328.8,-0.7,1.8,2470.762,13.28,0.039,249.3
2022-08-02T05:13:03,42.805,6.029,-0.048,-0.013,-0.014,103.0,102.0,100.0,13.4,1505.2,328.8,-0.8,1.8,2470.76,13.28,0.049,254.8
2022-08-02T05:16:03,42.805,6.029,-0.033,-0.016,0.007,103.0,101.0,101.0,13.3,1505.2,320.5,-0.8,1.8,2470.804,13.28,0.036,244.1
2022-08-02T05:19:03,42.805,6.029,-0.049,-0.011,-0.01,102.0,103.0,101.0,13.3,1505.2,320.2,-0.8,1.8,2470.764,13.28,0.05,257.3
2022-08-02T05:22:03,42.805,6.029,-0.044,-0.001,-0.02,101.0,103.0,101.0,13.4,1505.2,331.5,-0.8,1.8,2470.757,13.28,0.044,268.7
2022-08-02T05:25:03,42.805,6.029,-0.039,-0.015,-0.03,102.0,102.0,101.0,13.4,1505.2,327.0,-0.8,1.8,2470.779,13.28,0.041,249.0
2022-08-02T05:28:03,42.805,6.029,-0.059,-0.009,-0.011,103.0,101.0,100.0,13.4,1505.2,318.9,-0.8,1.8,2470.729,13.28,0.059,261.3
2022-08-02T05:31:03,42.805,6.029,-0.018,-0.005,-0.034,101.0,103.0,101.0,13.4,1505.2,323.5,-0.8,1.8,2470.803,13.28,0.018,254.5
2022-08-02T05:34:03,42.805,6.029,-0.046,-0.006,-0.024,102.0,103.0,100.0,13.4,1505.2,327.9,-0.8,1.8,2470.781,13.28,0.046,262.6
2022-08-02T05:37:03,42.805,6.029,-0.033,0.0,-0.025,103.0,103.0,100.0,13.4,1505.2,323.8,-0.8,1.8,2470.75,13.28,0.033,270.0
2022-08-02T05:40:03,42.805,6.029,-0.064,-0.014,-0.011,103.0,101.0,102.0,13.3,1505.2,331.4,-0.7,1.8,2470.735,13.28,0.065,257.7
2022-08-02T05:43:03,42.805,6.029,-0.028,-0.007,-0.014,103.0,103.0,100.0,13.4,1505.2,327.6,-0.7,1.8,2470.774,13.28,0.028,256.0
2022-08-02T05:46:03,42.805,6.029,-0.038,-0.011,-0.009,103.0,102.0,100.0,13.4,1505.2,320.3,-0.8,1.8,2470.777,13.28,0.039,253.9
2022-08-02T05:49:03,42.805,6.029,-0.022,-0.007,-0.005,103.0,103.0,101.0,13.4,1505.2,324.5,-0.7,1.8,2470.804,13.28,0.023,252.4
2022-08-02T05:52:03,42.805,6.029,-0.044,-0.038,-0.024,104.0,101.0,100.0,13.4,1505.2,327.1,-0.8,1.8,2470.778,13.28,0.058,229.2
2022-08-02T05:55:03,42.805,6.029,-0.037,-0.02,-0.04,102.0,102.0,101.0,13.3,1505.2,329.3,-0.8,1.8,2470.747,13.28,0.042,241.6
2022-08-02T05:58:03,42.805,6.029,-0.049,-0.028,-0.043,102.0,103.0,101.0,13.4,1505.2,323.1,-0.7,1.9,2470.738,13.28,0.056,240.3
2022-08-02T06:04:03,42.805,6.029,-0.049,-0.01,-0.025,103.0,102.0,100.0,13.4,1505.2,326.8,-0.7,1.8,2470.829,13.28,0.05,258.5
2022-08-02T06:07:03,42.805,6.029,-0.032,-0.008,-0.019,102.0,102.0,100.0,13.4,1505.2,322.0,-0.7,1.8,2470.809,13.28,0.032,256.0
2022-08-02T06:10:03,42.805,6.029,-0.055,-0.011,-0.028,103.0,102.0,100.0,13.3,1505.2,326.7,-0.7,1.8,2470.81,13.28,0.056,258.7
2022-08-02T06:13:03,42.805,6.029,-0.039,-0.034,-0.021,101.0,102.0,102.0,13.4,1505.2,320.1,-0.8,1.8,2470.809,13.28,0.051,228.9
2022-08-02T06:16:03,42.805,6.029,-0.023,-0.023,-0.027,103.0,101.0,101.0,13.4,1505.2,325.1,-0.7,1.8,2470.784,13.28,0.032,225.0
2022-08-02T06:19:03,42.805,6.029,-0.04,-0.007,-0.032,103.0,102.0,101.0,13.4,1505.2,321.5,-0.8,1.8,2470.812,13.28,0.04,260.1
2022-08-02T06:22:03,42.805,6.029,-0.039,-0.029,-0.037,102.0,104.0,100.0,13.4,1505.2,323.3,-0.8,1.8,2470.817,13.28,0.048,233.4
2022-08-02T06:25:03,42.805,6.029,-0.046,-0.011,-0.016,103.0,103.0,101.0,13.4,1505.2,327.2,-0.7,1.8,2470.799,13.28,0.047,256.6
2022-08-02T06:28:03,42.805,6.029,-0.038,-0.002,0.014,103.0,102.0,101.0,13.4,1505.2,318.5,-0.8,1.8,2470.788,13.28,0.038,267.0
2022-08-02T06:31:03,42.805,6.029,-0.055,-0.018,-0.029,103.0,103.0,100.0,13.4,1505.2,321.5,-0.7,1.8,2470.814,13.28,0.057,251.9
2022-08-02T06:34:03,42.805,6.029,-0.036,-0.01,-0.037,103.0,102.0,100.0,13.4,1505.2,319.5,-0.7,1.8,2470.775,13.28,0.037,254.5
2022-08-02T06:37:03,42.805,6.029,-0.044,-0.025,-0.044,102.0,102.0,101.0,13.4,1505.2,323.4,-0.7,1.9,2470.794,13.28,0.05,240.4
2022-08-02T06:40:03,42.805,6.029,-0.043,-0.015,-0.045,104.0,103.0,101.0,13.3,1505.2,326.9,-0.7,1.8,2470.778,13.28,0.045,250.8
2022-08-02T06:43:03,42.805,6.029,-0.041,-0.012,0.02,102.0,103.0,101.0,13.4,1505.2,329.5,-0.7,1.8,2470.828,13.28,0.042,253.7
2022-08-02T06:46:03,42.805,6.029,-0.047,0.001,-0.011,104.0,101.0,101.0,13.3,1505.2,319.6,-0.8,1.8,2470.787,13.29,0.047,271.2
2022-08-02T06:49:03,42.805,6.029,-0.024,0.003,-0.006,103.0,102.0,100.0,13.4,1505.2,328.6,-0.8,1.8,2470.811,13.28,0.024,277.1
2022-08-02T06:52:03,42.805,6.029,-0.039,-0.009,-0.026,103.0,100.0,101.0,13.3,1505.2,328.2,-0.8,1.8,2470.767,13.28,0.04,257.0
2022-08-02T06:55:03,42.805,6.029,-0.063,-0.014,-0.038,102.0,102.0,101.0,13.4,1505.2,321.4,-0.8,1.9,2470.843,13.28,0.064,257.5
2022-08-02T06:58:03,42.805,6.029,-0.051,0.0,-0.017,103.0,103.0,101.0,13.4,1505.2,330.0,-0.8,1.8,2470.839,13.28,0.051,270.0
2022-08-02T07:04:03,42.805,6.029,-0.013,-0.03,-0.027,101.0,103.0,102.0,13.4,1505.2,320.0,-0.8,1.8,2470.831,13.28,0.032,203.4
2022-08-02T07:07:03,42.805,6.029,-0.045,0.003,-0.029,102.0,103.0,101.0,13.3,1505.2,320.6,-0.8,1.8,2470.836,13.28,0.045,273.8
2022-08-02T07:10:03,42.805,6.029,-0.056,0.0,0.006,102.0,103.0,101.0,13.4,1505.2,327.7,-0.7,1.8,2470.838,13.28,0.056,270.0
2022-08-02T07:13:03,42.805,6.029,-0.039,-0.018,-0.02,103.0,102.0,101.0,13.3,1505.2,319.9,-0.7,1.8,2470.847,13.28,0.042,245.2
2022-08-02T07:16:03,42.805,6.029,-0.063,-0.012,-0.037,103.0,102.0,102.0,13.3,1505.2,332.3,-0.8,1.8,2470.841,13.28,0.064,259.2
2022-08-02T07:19:03,42.805,6.029,-0.048,-0.002,-0.007,103.0,104.0,100.0,13.4,1505.2,329.6,-0.8,1.8,2470.847,13.28,0.048,267.6
2022-08-02T07:22:03,42.805,6.029,-0.024,-0.006,-0.004,102.0,102.0,101.0,13.3,1505.2,325.3,-0.8,1.8,2470.851,13.28,0.024,256.0
2022-08-02T07:25:03,42.805,6.029,-0.048,-0.04,-0.045,102.0,103.0,100.0,13.4,1505.2,333.1,-0.8,1.8,2470.824,13.28,0.062,230.2
2022-08-02T07:28:03,42.805,6.029,-0.059,-0.006,0.003,102.0,102.0,101.0,13.3,1505.2,333.1,-0.8,1.8,2470.846,13.28,0.059,264.2
2022-08-02T07:31:03,42.805,6.029,-0.044,0.0,-0.02,103.0,102.0,102.0,13.3,1505.2,333.6,-0.7,1.8,2470.805,13.28,0.044,270.0
2022-08-02T07:34:03,42.805,6.029,-0.028,-0.004,0.005,103.0,102.0,101.0,13.4,1505.2,330.5,-0.7,1.8,2470.792,13.28,0.028,261.9
2022-08-02T07:37:03,42.805,6.029,-0.038,-0.008,-0.035,102.0,101.0,101.0,13.4,1505.2,327.4,-0.8,1.8,2470.808,13.28,0.038,258.1
2022-08-02T07:40:03,42.805,6.029,-0.044,-0.015,-0.05,102.0,104.0,101.0,13.4,1505.2,324.9,-0.8,1.9,2470.862,13.28,0.046,251.2
2022-08-02T07:43:03,42.805,6.029,-0.034,-0.021,-0.003,102.0,101.0,100.0,13.4,1505.2,322.6,-0.7,1.8,2470.818,13.28,0.039,238.3
2022-08-02T07:46:03,42.805,6.029,-0.054,-0.017,-0.039,103.0,102.0,101.0,13.4,1505.2,328.5,-0.8,1.8,2470.845,13.28,0.056,252.5
2022-08-02T07:49:03,42.805,6.029,-0.048,0.001,-0.031,103.0,102.0,101.0,13.3,1505.2,327.5,-0.7,1.8,2470.83,13.28,0.048,271.2
2022-08-02T07:52:03,42.805,6.029,-0.063,-0.022,-0.014,104.0,102.0,101.0,13.4,1505.2,319.5,-0.7,1.8,2470.806,13.28,0.066,250.8
2022-08-02T07:55:03,42.805,6.029,-0.034,-0.03,-0.011,103.0,102.0,101.0,13.3,1505.2,327.3,-0.8,1.8,2470.822,13.28,0.045,228.6
2022-08-02T07:58:03,42.805,6.029,-0.051,-0.002,-0.019,103.0,103.0,101.0,13.4,1505.2,328.3,-0.7,1.8,2470.839,13.28,0.051,267.8
2022-08-02T08:04:03,42.805,6.029,-0.021,-0.017,-0.023,102.0,102.0,101.0,13.4,1505.2,328.6,-0.8,1.8,2470.879,13.28,0.027,231.0
2022-08-02T08:07:03,42.805,6.029,-0.054,0.001,-0.003,102.0,101.0,101.0,13.3,1505.2,333.6,-0.8,1.8,2470.885,13.28,0.054,271.1
2022-08-02T08:10:03,42.805,6.029,-0.057,-0.04,-0.067,102.0,102.0,102.0,13.4,1505.2,324.2,-0.8,1.8,2470.865,13.28,0.069,234.9
2022-08-02T08:13:03,42.805,6.029,-0.037,-0.002,-0.029,103.0,102.0,100.0,13.4,1505.2,323.5,-0.8,1.8,2470.831,13.28,0.037,266.9
2022-08-02T08:16:03,42.805,6.029,-0.025,-0.004,-0.004,102.0,103.0,100.0,13.4,1505.2,331.8,-0.7,1.8,2470.89,13.28,0.025,260.9
2022-08-02T08:19:03,42.805,6.029,-0.042,-0.011,-0.025,102.0,102.0,101.0,13.3,1505.2,328.5,-0.7,1.8,2470.872,13.28,0.043,255.3
2022-08-02T08:22:03,42.805,6.029,-0.035,-0.011,-0.041,101.0,102.0,101.0,13.4,1505.2,329.3,-0.8,1.8,2470.87,13.28,0.036,252.6
2022-08-02T08:25:03,42.805,6.029,-0.026,0.002,-0.018,102.0,102.0,101.0,13.4,1505.2,329.1,-0.7,1.8,2470.853,13.28,0.026,274.4
2022-08-02T08:28:03,42.805,6.029,-0.044,-0.003,-0.04,102.0,102.0,101.0,13.3,1505.2,330.7,-0.8,1.8,2470.87,13.28,0.044,266.1
2022-08-02T08:31:03,42.805,6.029,-0.041,0.0,-0.021,102.0,103.0,102.0,13.4,1505.2,331.6,-0.7,1.8,2470.817,13.28,0.041,270.0
2022-08-02T08:34:03,42.805,6.029,-0.046,-0.009,-0.028,102.0,103.0,101.0,13.4,1505.2,321.9,-0.7,1.8,2470.883,13.28,0.046,258.9
2022-08-02T08:37:03,42.805,6.029,-0.05,-0.011,-0.027,103.0,102.0,101.0,13.4,1505.2,323.9,-0.8,1.8,2470.859,13.28,0.051,257.6
2022-08-02T08:40:03,42.805,6.029,-0.033,-0.01,-0.015,102.0,101.0,101.0,13.4,1505.2,323.6,-0.8,1.8,2470.865,13.28,0.034,253.1
2022-08-02T08:43:03,42.805,6.029,-0.06,-0.006,-0.019,103.0,101.0,101.0,13.4,1505.2,333.6,-0.8,1.8,2470.87,13.28,0.06,264.3
2022-08-02T08:46:03,42.805,6.029,-0.033,0.004,-0.003,101.0,103.0,101.0,13.3,1505.2,328.4,-0.8,1.8,2470.834,13.28,0.033,276.9
2022-08-02T08:49:03,42.805,6.029,-0.06,0.01,-0.028,104.0,102.0,101.0,13.3,1505.2,328.8,-0.7,1.8,2470.859,13.28,0.06,279.5
2022-08-02T08:52:03,42.805,6.029,-0.038,-0.018,0.005,102.0,103.0,101.0,13.4,1505.2,318.8,-0.7,1.8,2470.871,13.29,0.042,244.7
2022-08-02T08:55:03,42.805,6.029,-0.052,0.011,-0.011,102.0,102.0,101.0,13.3,1505.2,328.7,-0.8,1.8,2470.853,13.28,0.053,281.9
2022-08-02T08:58:03,42.805,6.029,-0.027,-0.015,0.001,102.0,102.0,100.0,13.4,1505.2,333.9,-0.8,1.8,2470.882,13.28,0.03,240.9
2022-08-02T09:04:03,42.805,6.029,-0.053,-0.011,-0.052,101.0,102.0,100.0,13.3,1505.2,324.0,-0.7,1.8,2470.874,13.28,0.054,258.3
2022-08-02T09:07:03,42.805,6.029,-0.063,-0.017,0.007,102.0,103.0,101.0,13.4,1505.2,324.9,-0.7,1.8,2470.899,13.28,0.065,254.9
2022-08-02T09:10:03,42.805,6.029,-0.055,-0.006,-0.016,102.0,102.0,100.0,13.4,1505.2,326.1,-0.7,1.8,2470.874,13.28,0.055,263.8
2022-08-02T09:13:03,42.805,6.029,-0.055,-0.013,-0.022,103.0,102.0,101.0,13.4,1505.2,325.3,-0.7,1.8,2470.917,13.28,0.056,256.7
2022-08-02T09:16:03,42.805,6.029,-0.029,-0.024,-0.008,102.0,102.0,100.0,13.4,1505.2,320.9,-0.7,1.8,2470.9,13.28,0.037,230.4
2022-08-02T09:19:03,42.805,6.029,-0.046,-0.014,-0.039,102.0,103.0,101.0,13.4,1505.2,323.8,-0.8,1.8,2470.902,13.28,0.048,253.1
2022-08-02T09:22:03,42.805,6.029,-0.066,0.002,-0.025,102.0,102.0,101.0,13.3,1505.2,323.2,-0.8,1.8,2470.825,13.28,0.066,271.7
2022-08-02T09:25:03,42.805,6.029,-0.068,0.002,-0.038,102.0,101.0,101.0,13.4,1505.2,326.4,-0.8,1.8,2470.847,13.28,0.068,271.7
2022-08-02T09:28:03,42.805,6.029,-0.055,0.002,-0.022,102.0,102.0,100.0,13.3,1505.2,325.5,-0.8,1.8,2470.871,13.28,0.055,272.1
2022-08-02T09:31:03,42.805,6.029,-0.035,-0.014,-0.003,102.0,101.0,101.0,13.4,1505.2,323.3,-0.7,1.8,2470.876,13.28,0.037,248.2
2022-08-02T09:34:03,42.805,6.029,-0.039,-0.016,-0.009,102.0,102.0,101.0,13.4,1505.2,320.0,-0.8,1.8,2470.869,13.28,0.042,247.7
2022-08-02T09:37:03,42.805,6.029,-0.029,-0.016,-0.014,101.0,102.0,101.0,13.4,1505.2,320.9,-0.8,1.8,2470.869,13.28,0.033,241.1
2022-08-02T09:40:03,42.805,6.029,-0.029,-0.017,-0.03,102.0,103.0,101.0,13.4,1505.2,328.9,-0.7,1.8,2470.911,13.28,0.033,239.6
2022-08-02T09:43:03,42.805,6.029,-0.058,0.003,-0.017,103.0,103.0,101.0,13.4,1505.2,327.4,-0.8,1.8,2470.869,13.28,0.058,273.0
2022-08-02T09:46:03,42.805,6.029,-0.051,0.0,0.001,102.0,102.0,101.0,13.3,1505.2,330.1,-0.8,1.8,2470.879,13.28,0.051,270.0